Hillsdale, MI

3:39 AM EST on December 11, 2019 (GMT -0500)
Hillsdale Municipal

Weather History for KJYM - October, 2019

Change the Weather History Date:

Thursday, October 24, 2019

  Actual Average Record
Temperature  
Mean Temperature 47 °F -  
Max Temperature 53 °F 58 °F 81 °F (1963)
Min Temperature 41 °F 37 °F 19 °F (1981)
Degree Days  
Heating Degree Days 18    
Moisture  
Dew Point 38 °F    
Average Humidity 68    
Maximum Humidity 91    
Minimum Humidity 49    
Precipitation  
Precipitation 0.00 in - - ()
Sea Level Pressure  
Sea Level Pressure 30.17 in    
Wind  
Wind Speed 8 mph ()    
Max Wind Speed 15 mph    
Max Gust Speed 22 mph    
Visibility 10.0 miles    
Events      
Averages and records for this station are not official NWS values.
T = Trace of Precipitation, MM = Missing Value Source: Averaged Metar Reports

Daily Weather History Graph

Daily Weather History Graph

Search for Another Location

Airport or City:

Astronomy

Oct. 24, 2019 Rise Set
Actual Time 8:00 AM EDT 6:43 PM EDT
Civil Twilight 7:32 AM EDT 7:12 PM EDT
Nautical Twilight 6:59 AM EDT 7:44 PM EDT
Astronomical Twilight 6:27 AM EDT 8:16 PM EDT
Moon 3:24 AM EDT (10/24) 5:15 PM EDT (10/24)
Length of Visible Light 11h 39m
Length of Day
10h 42m
Waning Crescent, 17% of the Moon is Illuminated
Oct 24
Waning Crescent
Oct 27
New
Nov 4
First Quarter
Nov 12
Full
Nov 19
Last Quarter

Hourly Weather History & Observations

Time (EDT) Temp. Windchill Dew Point Humidity Pressure Visibility Wind Dir Wind Speed Gust Speed Precip Events Conditions
12:18 AM 52.9 °F - 34.9 °F 50% 30.00 in 10.0 mi South 8.1 mph - N/A   Overcast
12:37 AM 53.1 °F - 34.7 °F 50% 29.99 in 10.0 mi SSW 9.2 mph 16.1 mph N/A   Overcast
12:55 AM 53.1 °F - 35.1 °F 50% 29.98 in 10.0 mi South 10.4 mph 20.7 mph N/A   Overcast
1:15 AM 53.1 °F - 34.9 °F 50% 29.98 in 10.0 mi South 12.7 mph 19.6 mph N/A   Overcast
1:16 AM 53.1 °F - 34.9 °F 50% 29.98 in 10.0 mi South 13.8 mph 19.6 mph N/A   Overcast
1:35 AM 53.6 °F - 34.7 °F 49% 29.98 in 10.0 mi SSW 10.4 mph 19.6 mph N/A   Overcast
1:39 AM 53.6 °F - 34.9 °F 49% 29.98 in 10.0 mi SSW 10.4 mph 17.3 mph N/A   Overcast
1:58 AM 53.6 °F - 34.9 °F 49% 29.98 in 10.0 mi South 11.5 mph 18.4 mph N/A   Overcast
2:16 AM 53.6 °F - 35.1 °F 50% 29.98 in 10.0 mi SSW 15.0 mph 19.6 mph N/A   Overcast
2:35 AM 53.1 °F - 35.2 °F 51% 29.99 in 10.0 mi SW 8.1 mph - N/A   Mostly Cloudy
2:55 AM 53.2 °F - 35.4 °F 51% 29.99 in 10.0 mi SW 9.2 mph 18.4 mph N/A   Mostly Cloudy
3:19 AM 53.4 °F - 35.6 °F 51% 29.99 in 10.0 mi SSW 12.7 mph 19.6 mph N/A   Scattered Clouds
3:37 AM 53.1 °F - 35.6 °F 52% 30.00 in 10.0 mi SW 10.4 mph 18.4 mph N/A   Clear
3:55 AM 53.1 °F - 36.0 °F 52% 30.01 in 10.0 mi SW 9.2 mph - N/A   Mostly Cloudy
3:56 AM 53.1 °F - 36.0 °F 52% 30.01 in 10.0 mi SW 9.2 mph - N/A   Mostly Cloudy
4:15 AM 52.9 °F - 36.5 °F 54% 30.01 in 10.0 mi SW 5.8 mph - N/A   Overcast
4:16 AM 52.9 °F - 36.5 °F 54% 30.01 in 10.0 mi SW 6.9 mph - N/A   Overcast
4:35 AM 52.7 °F - 36.9 °F 55% 30.02 in 10.0 mi SW 8.1 mph - N/A   Overcast
4:58 AM 53.6 °F - 37.4 °F 54% 30.03 in 10.0 mi WSW 8.1 mph - N/A   Overcast
5:16 AM 53.6 °F - 37.8 °F 55% 30.03 in 10.0 mi WSW 11.5 mph 21.9 mph N/A   Overcast
5:35 AM 53.6 °F - 37.9 °F 55% 30.04 in 10.0 mi WSW 10.4 mph 16.1 mph N/A   Overcast
5:36 AM 53.6 °F - 37.9 °F 55% 30.04 in 10.0 mi WSW 9.2 mph 16.1 mph N/A   Overcast
5:55 AM 52.7 °F - 38.1 °F 58% 30.05 in 10.0 mi West 8.1 mph 17.3 mph N/A   Mostly Cloudy
5:56 AM 52.7 °F - 38.1 °F 58% 30.05 in 10.0 mi WSW 8.1 mph - N/A   Scattered Clouds
6:36 AM 49.8 °F - 37.9 °F 64% 30.07 in 10.0 mi WSW 5.8 mph - N/A   Scattered Clouds
6:55 AM 49.1 °F - 38.3 °F 66% 30.08 in 10.0 mi WSW 4.6 mph - N/A   Scattered Clouds
6:56 AM 49.1 °F - 38.1 °F 66% 30.08 in 10.0 mi WSW 3.5 mph - N/A   Clear
7:15 AM 48.0 °F - 37.9 °F 68% 30.09 in 10.0 mi West 3.5 mph - N/A   Clear
7:16 AM 48.0 °F - 37.9 °F 68% 30.09 in 10.0 mi West 3.5 mph - N/A   Clear
7:58 AM 45.0 °F 40.1 °F 39.7 °F 82% 30.10 in 10.0 mi NW 9.2 mph - N/A   Mostly Cloudy
8:16 AM 43.2 °F 38.4 °F 39.9 °F 88% 30.12 in 10.0 mi NW 8.1 mph - N/A   Mostly Cloudy
8:35 AM 42.8 °F 40.1 °F 40.1 °F 90% 30.13 in 10.0 mi NW 4.6 mph - N/A   Clear
8:36 AM 42.8 °F 40.1 °F 40.1 °F 90% 30.13 in 10.0 mi NW 4.6 mph - N/A   Clear
8:55 AM 42.8 °F 37.5 °F 39.9 °F 90% 30.16 in 10.0 mi NW 9.2 mph - N/A   Clear
8:56 AM 42.8 °F 37.0 °F 39.9 °F 90% 30.16 in 10.0 mi NNW 10.4 mph - N/A   Scattered Clouds
9:19 AM 44.2 °F 38.4 °F 40.3 °F 86% 30.17 in 10.0 mi NW 11.5 mph - N/A   Mostly Cloudy
9:37 AM 44.6 °F 38.1 °F 39.7 °F 83% 30.19 in 10.0 mi NW 13.8 mph 18.4 mph N/A   Overcast
9:55 AM 44.8 °F 39.4 °F 40.1 °F 84% 30.20 in 10.0 mi NNW 10.4 mph 16.1 mph N/A   Overcast
9:56 AM 44.8 °F 39.0 °F 40.1 °F 84% 30.20 in 10.0 mi NW 11.5 mph 16.1 mph N/A   Overcast
10:15 AM 45.7 °F 40.6 °F 39.9 °F 80% 30.21 in 10.0 mi NNW 10.4 mph - N/A   Overcast
10:16 AM 45.7 °F 40.2 °F 39.9 °F 80% 30.21 in 10.0 mi NNW 11.5 mph - N/A   Overcast
10:35 AM 46.4 °F 41.9 °F 39.4 °F 77% 30.20 in 10.0 mi NNW 9.2 mph - N/A   Overcast
10:58 AM 48.0 °F - 39.0 °F 71% 30.22 in 10.0 mi NW 9.2 mph - N/A   Scattered Clouds
11:16 AM 49.1 °F - 38.8 °F 68% 30.22 in 10.0 mi NW 9.2 mph - N/A   Scattered Clouds
11:35 AM 48.4 °F - 38.1 °F 68% 30.22 in 10.0 mi NNW 10.4 mph - N/A   Scattered Clouds
11:36 AM 48.4 °F - 37.9 °F 67% 30.22 in 10.0 mi NNW 10.4 mph - N/A   Scattered Clouds
11:55 AM 48.4 °F - 38.3 °F 68% 30.22 in 10.0 mi NW 8.1 mph - N/A   Scattered Clouds
12:19 PM 48.4 °F - 37.9 °F 67% 30.23 in 10.0 mi WNW 11.5 mph - N/A   Scattered Clouds
12:36 PM 48.6 °F - 38.1 °F 67% 30.23 in 10.0 mi NW 6.9 mph - N/A   Scattered Clouds
12:55 PM 48.6 °F - 37.8 °F 66% 30.24 in 10.0 mi NNW 9.2 mph - N/A   Scattered Clouds
12:56 PM 48.6 °F - 37.8 °F 66% 30.24 in 10.0 mi NNW 8.1 mph - N/A   Scattered Clouds
1:15 PM 50.2 °F - 37.6 °F 62% 30.23 in 10.0 mi WNW 10.4 mph - N/A   Scattered Clouds
1:16 PM 50.2 °F - 37.6 °F 62% 30.23 in 10.0 mi WNW 9.2 mph - N/A   Scattered Clouds
2:16 PM 50.7 °F - 37.6 °F 61% 30.24 in 10.0 mi NNW 5.8 mph - N/A   Mostly Cloudy
2:35 PM 51.6 °F - 38.1 °F 60% 30.25 in 10.0 mi WNW 5.8 mph - N/A   Mostly Cloudy
2:55 PM 51.3 °F - 37.4 °F 59% 30.25 in 10.0 mi West 9.2 mph - N/A   Scattered Clouds
2:56 PM 51.4 °F - 37.4 °F 59% 30.25 in 10.0 mi West 9.2 mph - N/A   Scattered Clouds
3:19 PM 52.2 °F - 37.9 °F 58% 30.25 in 10.0 mi NW 9.2 mph - N/A   Scattered Clouds
3:37 PM 51.8 °F - 37.9 °F 59% 30.25 in 10.0 mi WNW 6.9 mph - N/A   Scattered Clouds
3:55 PM 52.3 °F - 38.7 °F 60% 30.25 in 10.0 mi WNW 6.9 mph - N/A   Mostly Cloudy
4:15 PM 51.4 °F - 37.8 °F 60% 30.25 in 10.0 mi NW 6.9 mph - N/A   Scattered Clouds
4:16 PM 51.4 °F - 37.9 °F 60% 30.25 in 10.0 mi NW 6.9 mph - N/A   Scattered Clouds
4:35 PM 51.6 °F - 37.2 °F 58% 30.26 in 10.0 mi WNW 6.9 mph - N/A   Clear
4:40 PM 51.6 °F - 37.6 °F 59% 30.26 in 10.0 mi WNW 8.1 mph - N/A   Clear
4:58 PM 51.1 °F - 37.2 °F 59% 30.26 in 10.0 mi NNW 4.6 mph - N/A   Scattered Clouds
5:16 PM 50.9 °F - 37.6 °F 60% 30.26 in 10.0 mi WNW 5.8 mph - N/A   Clear
5:35 PM 50.0 °F - 38.1 °F 64% 30.25 in 10.0 mi NW 4.6 mph - N/A   Clear
5:55 PM 49.3 °F - 37.2 °F 63% 30.25 in 10.0 mi NW 4.6 mph - N/A   Clear
6:19 PM 48.4 °F - 37.2 °F 65% 30.25 in 10.0 mi Calm Calm - N/A   Clear
6:37 PM 47.7 °F - 37.8 °F 69% 30.26 in 10.0 mi Calm Calm - N/A   Clear
6:55 PM 46.0 °F - 37.0 °F 71% 30.26 in 10.0 mi Calm Calm - N/A   Clear
7:15 PM 45.3 °F - 38.3 °F 76% 30.26 in 10.0 mi Calm Calm - N/A   Clear
7:35 PM 44.6 °F - 38.5 °F 79% 30.27 in 10.0 mi Calm Calm - N/A   Clear
7:58 PM 43.5 °F - 38.8 °F 84% 30.27 in 10.0 mi Calm Calm - N/A   Clear
8:16 PM 43.0 °F - 38.7 °F 85% 30.28 in 10.0 mi Calm Calm - N/A   Clear
8:35 PM 42.8 °F - 39.4 °F 88% 30.28 in 10.0 mi Calm Calm - N/A   Mostly Cloudy
8:55 PM 43.0 °F - 39.2 °F 86% 30.29 in 10.0 mi Calm Calm - N/A   Overcast
9:19 PM 41.9 °F - 39.6 °F 91% 30.30 in 10.0 mi Calm Calm - N/A   Mostly Cloudy
9:37 PM 41.2 °F - 38.7 °F 91% 30.30 in 10.0 mi Calm Calm - N/A   Mostly Cloudy
9:55 PM 41.9 °F - 39.0 °F 90% 30.30 in 10.0 mi Calm Calm - N/A   Overcast
10:15 PM 42.4 °F - 39.2 °F 88% 30.30 in 10.0 mi Calm Calm - N/A   Overcast
10:35 PM 42.8 °F 41.1 °F 39.9 °F 90% 30.32 in 10.0 mi West 3.5 mph - N/A   Overcast
10:58 PM 43.0 °F 41.3 °F 40.6 °F 91% 30.32 in 10.0 mi NW 3.5 mph - N/A   Overcast
11:16 PM 43.9 °F 40.5 °F 39.0 °F 83% 30.32 in 10.0 mi NW 5.8 mph - N/A   Overcast
11:35 PM 43.7 °F 39.7 °F 38.3 °F 81% 30.32 in 10.0 mi NNW 6.9 mph - N/A   Overcast
11:55 PM 43.3 °F 39.2 °F 37.6 °F 80% 30.32 in 10.0 mi NNW 6.9 mph - N/A   Overcast